Location: Amherst
(42.5000°N, 72.5000°W)
Time: 15:56:06
(UTC-04:00)

ISS - Pass Details

Date: 16 March 2018
Orbit: 403 x 408 km, 51.6° (Epoch: 20 September)

Event Time Altitude Azimuth Distance (km) Brightness Sun altitude
Exits shadow 04:51:27 27° 20° (NNE) 830 -1.9 -24.1°
Maximum altitude 04:51:27 27° 20° (NNE) 830 -1.9 -24.1°
Drops below altitude 10° 04:54:22 10° 81° (E) 1,483 0.1 -23.6°
Sets 04:56:39 0° 94° (E) 2,339 1.1 -23.2°
